.
WxDataArchive / Data Records for 2012-03-04
2012-03-03 March 2012 2012-03-05

Data Records for Sunday, 04 March 2012

Time	Temp	Chill	HIndex	Humid	Dewpt	 Wind 	HiWind	WindDir	Rain 	Barom 
-----	----	-----	------	-----	-----	------	------	-------	-----	----- 
00:00	29.5	29.5	29.5	81	24.4	1	4	248	0.00	29.816 
00:05	29.5	29.5	29.5	81	24.4	1	3	248	0.00	29.816 
00:10	29.7	29.7	29.7	81	24.6	1	3	248	0.00	29.816 
00:15	29.5	29.5	29.5	81	24.4	2	4	248	0.00	29.809 
00:20	29.5	29.5	29.5	81	24.4	1	3	248	0.00	29.809 
00:25	29.5	29.5	29.5	81	24.4	1	3	248	0.00	29.809 
00:30	29.5	29.5	29.5	81	24.4	1	3	248	0.00	29.806 
00:35	29.5	29.5	29.5	81	24.4	1	5	248	0.00	29.806 
00:40	29.4	29.4	29.4	81	24.3	1	5	248	0.00	29.806 
00:45	29.4	29.4	29.4	81	24.3	1	5	248	0.00	29.806 
00:50	29.4	29.4	29.4	82	24.6	2	5	248	0.00	29.806 
00:55	29.4	29.4	29.4	82	24.6	1	6	248	0.00	29.806 
01:00	29.4	29.4	29.4	82	24.6	2	5	248	0.00	29.806 
01:05	29.4	29.4	29.4	82	24.6	1	4	248	0.00	29.806 
01:10	29.3	29.3	29.3	82	24.5	1	3	248	0.00	29.806 
01:15	29.3	29.3	29.3	82	24.5	2	4	248	0.00	29.806 
01:20	29.3	29.3	29.3	83	24.8	1	3	202	0.00	29.806 
01:25	29.3	29.3	29.3	83	24.8	1	2	202	0.00	29.806 
01:30	29.1	29.1	29.1	83	24.6	0	2	202	0.00	29.808 
01:35	29.1	29.1	29.1	83	24.6	1	3	202	0.00	29.808 
01:40	29.1	29.1	29.1	83	24.6	1	3	202	0.00	29.808 
01:45	29.1	29.1	29.1	83	24.6	0	2	248	0.00	29.809 
01:50	29.1	29.1	29.1	83	24.6	1	3	248	0.00	29.809 
01:55	29.1	29.1	29.1	83	24.6	1	3	248	0.00	29.809 
02:00	29.1	29.1	29.1	83	24.6	1	3	248	0.00	29.809 
02:05	29.1	29.1	29.1	83	24.6	1	3	248	0.00	29.809 
02:10	29.1	29.1	29.1	83	24.6	1	3	248	0.00	29.809 
02:15	29.1	29.1	29.1	83	24.6	1	2	248	0.00	29.809 
02:20	29.1	29.1	29.1	83	24.6	1	4	248	0.00	29.809 
02:25	29.1	29.1	29.1	83	24.6	1	3	248	0.00	29.809 
02:30	29.1	29.1	29.1	83	24.6	0	2	248	0.00	29.805 
02:35	29.1	29.1	29.1	83	24.6	1	3	248	0.00	29.805 
02:40	29.1	29.1	29.1	83	24.6	1	3	248	0.00	29.805 
02:45	29.1	29.1	29.1	82	24.3	1	4	248	0.00	29.802 
02:50	29.1	29.1	29.1	82	24.3	1	3	248	0.00	29.802 
02:55	29.1	29.1	29.1	82	24.3	1	6	248	0.00	29.802 
03:00	29.1	29.1	29.1	81	24.0	1	4	248	0.00	29.804 
03:05	29.1	29.1	29.1	81	24.0	1	4	248	0.00	29.804 
03:10	29.1	29.1	29.1	81	24.0	1	3	248	0.00	29.804 
03:15	29.1	29.1	29.1	81	24.0	1	4	248	0.00	29.800 
03:20	29.1	29.1	29.1	81	24.0	0	2	248	0.00	29.800 
03:25	29.1	29.1	29.1	81	24.0	1	4	248	0.00	29.800 
03:30	29.1	29.1	29.1	81	24.0	1	3	248	0.00	29.793 
03:35	29.1	29.1	29.1	81	24.0	0	2	248	0.00	29.793 
03:40	29.3	29.3	29.3	80	23.9	1	3	248	0.00	29.793 
03:45	29.3	29.3	29.3	80	23.9	0	2	248	0.00	29.792 
03:50	29.3	29.3	29.3	80	23.9	1	4	248	0.00	29.792 
03:55	29.3	29.3	29.3	80	23.9	2	3	248	0.00	29.792 
04:00	29.3	29.3	29.3	79	23.6	1	2	248	0.00	29.793 
04:05	29.3	29.3	29.3	79	23.6	0	2	248	0.00	29.793 
04:10	29.3	29.3	29.3	79	23.6	1	3	248	0.00	29.793 
04:15	29.3	29.3	29.3	79	23.6	1	2	248	0.00	29.792 
04:20	29.3	29.3	29.3	79	23.6	1	3	248	0.00	29.792 
04:25	29.3	29.3	29.3	79	23.6	0	2	248	0.00	29.792 
04:30	29.3	29.3	29.3	79	23.6	1	3	248	0.00	29.794 
04:35	29.3	29.3	29.3	80	23.9	1	3	248	0.00	29.794 
04:40	29.3	29.3	29.3	80	23.9	1	4	248	0.00	29.794 
04:45	29.3	29.3	29.3	80	23.9	1	4	248	0.00	29.798 
04:50	29.3	29.3	29.3	80	23.9	1	3	248	0.00	29.798 
04:55	29.3	29.3	29.3	80	23.9	0	3	248	0.00	29.798 
05:00	29.3	29.3	29.3	80	23.9	1	2	248	0.00	29.800 
05:05	29.3	29.3	29.3	81	24.2	1	3	248	0.00	29.800 
05:10	29.3	29.3	29.3	81	24.2	0	1	248	0.00	29.800 
05:15	29.3	29.3	29.3	81	24.2	0	2	248	0.00	29.803 
05:20	29.3	29.3	29.3	82	24.5	1	3	248	0.00	29.803 
05:25	29.1	29.1	29.1	80	23.7	1	3	248	0.00	29.803 
05:30	29.1	29.1	29.1	80	23.7	1	3	248	0.00	29.798 
05:35	29.1	29.1	29.1	80	23.7	1	3	248	0.00	29.798 
05:40	29.0	29.0	29.0	79	23.3	0	1	248	0.00	29.798 
05:45	28.8	28.8	28.8	78	22.8	0	3	248	0.00	29.806 
05:50	28.8	28.8	28.8	78	22.8	0	2	248	0.00	29.806 
05:55	28.7	28.7	28.7	77	22.4	1	3	248	0.00	29.806 
06:00	28.7	28.7	28.7	77	22.4	0	3	248	0.00	29.810 
06:05	28.5	28.5	28.5	76	21.9	0	2	248	0.00	29.810 
06:10	28.5	28.5	28.5	76	21.9	1	2	248	0.00	29.810 
06:15	28.5	28.5	28.5	76	21.9	1	2	248	0.00	29.813 
06:20	28.7	28.7	28.7	75	21.8	1	3	248	0.00	29.813 
06:25	28.7	28.7	28.7	75	21.8	0	1	248	0.00	29.813 
06:30	28.7	28.7	28.7	75	21.8	0	2	248	0.00	29.814 
06:35	28.5	28.5	28.5	75	21.6	0	2	248	0.00	29.814 
06:40	28.5	28.5	28.5	75	21.6	0	1	248	0.00	29.814 
06:45	28.5	28.5	28.5	75	21.6	0	1	248	0.00	29.820 
06:50	28.5	28.5	28.5	76	21.9	0	1	248	0.00	29.820 
06:55	28.4	28.4	28.4	76	21.8	0	1	248	0.00	29.820 
07:00	28.4	28.4	28.4	77	22.1	0	2	248	0.00	29.822 
07:05	28.4	28.4	28.4	77	22.1	0	1	248	0.00	29.822 
07:10	28.2	28.2	28.2	77	21.9	0	2	248	0.00	29.822 
07:15	28.4	28.4	28.4	78	22.4	0	3	248	0.00	29.824 
07:20	28.4	28.4	28.4	79	22.7	0	1	248	0.00	29.824 
07:25	28.4	28.4	28.4	79	22.7	0	1	248	0.00	29.824 
07:30	28.5	28.5	28.5	80	23.1	1	3	248	0.00	29.828 
07:35	28.5	28.5	28.5	80	23.1	1	3	248	0.00	29.828 
07:40	28.7	28.7	28.7	80	23.3	0	3	248	0.00	29.828 
07:45	28.8	28.8	28.8	80	23.4	1	3	248	0.00	29.832 
07:50	28.8	28.8	28.8	79	23.1	1	4	248	0.00	29.832 
07:55	29.0	29.0	29.0	79	23.3	1	3	225	0.00	29.832 
08:00	29.0	29.0	29.0	79	23.3	1	3	225	0.00	29.836 
08:05	29.1	29.1	29.1	79	23.4	1	3	248	0.00	29.836 
08:10	29.1	29.1	29.1	78	23.1	1	3	248	0.00	29.836 
08:15	29.3	29.3	29.3	78	23.3	1	3	248	0.00	29.838 
08:20	29.4	29.4	29.4	77	23.1	1	3	248	0.00	29.838 
08:25	29.4	29.4	29.4	76	22.8	1	5	270	0.00	29.838 
08:30	29.5	29.5	29.5	76	22.9	1	3	248	0.00	29.840 
08:35	29.5	29.5	29.5	75	22.6	1	4	248	0.00	29.840 
08:40	29.7	29.7	29.7	75	22.8	1	3	248	0.00	29.840 
08:45	29.7	29.7	29.7	74	22.4	2	6	270	0.00	29.843 
08:50	29.8	29.8	29.8	73	22.2	2	5	248	0.00	29.843 
08:55	29.8	29.8	29.8	73	22.2	2	4	248	0.00	29.843 
09:00	30.1	30.1	30.1	73	22.5	1	3	248	0.00	29.845 
09:05	30.1	30.1	30.1	72	22.2	2	4	248	0.00	29.845 
09:10	30.3	30.3	30.3	71	22.0	2	6	225	0.00	29.845 
09:15	30.4	30.4	30.4	72	22.5	1	4	225	0.00	29.847 
09:20	30.6	30.6	30.6	70	22.0	2	4	248	0.00	29.847 
09:25	30.7	30.7	30.7	69	21.8	2	5	270	0.00	29.847 
09:30	30.7	30.7	30.7	69	21.8	2	4	248	0.00	29.844 
09:35	30.9	30.9	30.9	68	21.6	2	4	248	0.00	29.844 
09:40	31.0	31.0	31.0	66	21.0	3	5	270	0.00	29.844 
09:45	31.2	31.2	31.2	66	21.2	2	5	270	0.00	29.848 
09:50	31.5	31.5	31.5	66	21.5	2	4	270	0.00	29.848 
09:55	31.6	31.6	31.6	66	21.6	2	4	248	0.00	29.848 
10:00	31.8	31.8	31.8	65	21.4	2	4	248	0.00	29.848 
10:05	31.9	31.9	31.9	65	21.5	2	5	225	0.00	29.848 
10:10	32.2	32.2	32.2	65	21.8	2	4	270	0.00	29.848 
10:15	32.5	32.5	32.5	65	22.1	2	5	248	0.00	29.850 
10:20	32.5	32.5	32.5	64	21.7	2	3	270	0.00	29.850 
10:25	32.7	32.7	32.7	63	21.5	3	6	270	0.00	29.850 
10:30	32.8	32.8	32.8	64	22.0	2	4	248	0.00	29.851 
10:35	32.9	32.9	32.9	65	22.4	2	4	248	0.00	29.851 
10:40	33.2	33.2	33.2	65	22.7	2	6	270	0.00	29.851 
10:45	33.8	33.8	33.8	64	22.9	2	5	270	0.00	29.850 
10:50	34.1	34.1	34.1	62	22.5	2	5	270	0.00	29.850 
10:55	34.0	34.0	34.0	62	22.4	3	6	248	0.00	29.850 
11:00	34.0	34.0	34.0	63	22.7	3	5	270	0.00	29.849 
11:05	34.0	34.0	34.0	62	22.4	2	5	248	0.00	29.849 
11:10	34.4	34.4	34.4	63	23.1	2	4	248	0.00	29.849 
11:15	34.4	34.4	34.4	61	22.4	2	5	270	0.00	29.848 
11:20	34.3	34.3	34.3	61	22.3	2	4	270	0.00	29.848 
11:25	34.7	34.7	34.7	62	23.0	2	4	270	0.00	29.848 
11:30	35.0	35.0	35.0	62	23.3	3	6	270	0.00	29.848 
11:35	35.2	35.2	35.2	60	22.7	2	6	248	0.00	29.848 
11:40	35.5	35.5	35.5	60	23.0	2	5	270	0.00	29.848 
11:45	35.5	35.5	35.5	60	23.0	3	7	248	0.00	29.844 
11:50	35.8	35.8	35.8	61	23.7	2	4	248	0.00	29.844 
11:55	36.0	36.0	36.0	59	23.1	2	4	248	0.00	29.844 
12:00	36.0	36.0	36.0	58	22.7	2	4	270	0.00	29.843 
12:05	36.3	36.3	36.3	59	23.4	2	4	270	0.00	29.843 
12:10	36.3	36.3	36.3	56	22.1	2	6	248	0.00	29.843 
12:15	36.5	36.5	36.5	57	22.7	2	7	248	0.00	29.846 
12:20	36.9	36.9	36.9	56	22.7	2	5	270	0.00	29.846 
12:25	37.3	37.3	37.3	57	23.5	1	4	248	0.00	29.846 
12:30	37.3	37.3	37.3	55	22.6	1	5	248	0.00	29.846 
12:35	37.0	37.0	37.0	53	21.5	1	4	248	0.00	29.846 
12:40	36.8	36.8	36.8	53	21.3	1	4	248	0.00	29.846 
12:45	36.9	36.9	36.9	53	21.4	1	4	225	0.00	29.846 
12:50	36.6	36.6	36.6	52	20.7	2	5	248	0.00	29.846 
12:55	35.9	35.9	35.9	53	20.5	2	5	270	0.00	29.846 
13:00	35.6	35.6	35.6	55	21.0	2	5	225	0.00	29.847 
13:05	35.3	35.3	35.3	54	20.3	2	4	270	0.00	29.847 
13:10	35.2	35.2	35.2	54	20.2	2	5	248	0.00	29.847 
13:15	35.0	35.0	35.0	54	20.1	1	3	270	0.00	29.849 
13:20	35.2	35.2	35.2	57	21.5	1	5	225	0.00	29.849 
13:25	35.2	35.2	35.2	54	20.2	3	9	248	0.00	29.849 
13:30	35.2	35.2	35.2	56	21.1	2	5	248	0.00	29.849 
13:35	35.3	35.3	35.3	54	20.3	3	9	248	0.00	29.849 
13:40	35.6	35.6	35.6	54	20.6	3	9	270	0.00	29.849 
13:45	35.3	35.3	35.3	59	22.4	2	5	270	0.00	29.845 
13:50	34.4	34.4	34.4	65	23.9	3	5	270	0.00	29.845 
13:55	33.8	30.2	33.8	66	23.7	4	8	248	0.00	29.845 
14:00	33.7	33.7	33.7	65	23.2	3	7	270	0.00	29.846 
14:05	34.0	34.0	34.0	66	23.9	2	6	270	0.00	29.846 
14:10	34.1	34.1	34.1	70	25.4	2	5	248	0.00	29.846 
14:15	33.7	33.7	33.7	71	25.3	2	6	248	0.00	29.845 
14:20	33.8	33.8	33.8	70	25.1	2	7	248	0.00	29.845 
14:25	34.0	34.0	34.0	69	24.9	3	6	248	0.00	29.845 
14:30	34.3	34.3	34.3	71	25.9	2	4	270	0.00	29.840 
14:35	34.0	34.0	34.0	71	25.6	3	6	270	0.00	29.840 
14:40	33.7	33.7	33.7	73	26.0	2	6	248	0.00	29.840 
14:45	33.4	33.4	33.4	71	25.0	3	5	270	0.00	29.840 
14:50	33.5	33.5	33.5	71	25.1	2	4	248	0.00	29.840 
14:55	34.1	34.1	34.1	70	25.4	2	5	248	0.00	29.840 
15:00	34.1	34.1	34.1	69	25.0	2	4	248	0.00	29.838 
15:05	34.3	34.3	34.3	69	25.2	2	5	225	0.00	29.838 
15:10	34.1	34.1	34.1	67	24.3	3	5	248	0.00	29.838 
15:15	34.3	34.3	34.3	68	24.9	2	4	248	0.00	29.842 
15:20	34.1	34.1	34.1	68	24.7	3	7	248	0.00	29.842 
15:25	34.0	34.0	34.0	69	24.9	2	4	248	0.00	29.842 
15:30	34.0	34.0	34.0	68	24.6	3	5	248	0.00	29.844 
15:35	34.0	34.0	34.0	66	23.9	3	6	248	0.00	29.844 
15:40	34.1	34.1	34.1	66	23.9	2	5	248	0.00	29.844 
15:45	34.1	34.1	34.1	67	24.3	2	4	248	0.00	29.838 
15:50	34.0	34.0	34.0	68	24.6	3	6	270	0.00	29.838 
15:55	33.7	33.7	33.7	71	25.3	2	6	248	0.00	29.838 
16:00	33.5	33.5	33.5	72	25.5	2	5	248	0.00	29.841 
16:05	33.7	33.7	33.7	68	24.3	3	6	270	0.00	29.841 
16:10	34.3	34.3	34.3	66	24.1	3	5	248	0.00	29.841 
16:15	34.6	34.6	34.6	67	24.8	1	5	248	0.00	29.839 
16:20	34.6	34.6	34.6	65	24.1	2	5	248	0.00	29.839 
16:25	34.3	34.3	34.3	65	23.8	2	5	248	0.00	29.839 
16:30	34.1	34.1	34.1	65	23.6	2	4	248	0.00	29.843 
16:35	33.8	33.8	33.8	65	23.3	2	6	248	0.00	29.843 
16:40	33.8	33.8	33.8	65	23.3	2	6	248	0.00	29.843 
16:45	33.8	33.8	33.8	65	23.3	2	6	248	0.00	29.850 
16:50	33.7	33.7	33.7	65	23.2	2	5	270	0.00	29.850 
16:55	33.5	33.5	33.5	66	23.4	2	4	248	0.00	29.850 
17:00	33.2	33.2	33.2	65	22.7	2	5	248	0.00	29.852 
17:05	33.2	33.2	33.2	66	23.1	2	6	248	0.00	29.852 
17:10	33.2	33.2	33.2	68	23.8	2	4	248	0.00	29.852 
17:15	33.4	33.4	33.4	68	24.0	2	5	248	0.00	29.852 
17:20	33.4	33.4	33.4	69	24.3	2	6	248	0.00	29.852 
17:25	33.1	33.1	33.1	70	24.4	2	5	248	0.00	29.852 
17:30	32.7	32.7	32.7	72	24.7	2	4	248	0.00	29.861 
17:35	32.4	32.4	32.4	73	24.7	1	4	248	0.00	29.861 
17:40	32.1	32.1	32.1	72	24.1	2	6	248	0.00	29.861 
17:45	31.9	31.9	31.9	71	23.6	3	6	225	0.00	29.868 
17:50	31.8	31.8	31.8	72	23.8	2	4	248	0.00	29.868 
17:55	31.6	31.6	31.6	73	24.0	2	4	248	0.00	29.868 
18:00	31.5	31.5	31.5	74	24.2	1	4	248	0.00	29.869 
18:05	31.5	31.5	31.5	75	24.5	1	4	248	0.00	29.869 
18:10	31.6	31.6	31.6	75	24.6	1	2	248	0.00	29.869 
18:15	31.6	31.6	31.6	75	24.6	0	1	248	0.00	29.868 
18:20	31.6	31.6	31.6	75	24.6	1	4	248	0.00	29.868 
18:25	31.6	31.6	31.6	76	24.9	1	3	248	0.00	29.868 
18:30	31.8	31.8	31.8	76	25.1	1	2	248	0.00	29.870 
18:35	31.8	31.8	31.8	75	24.8	1	4	248	0.00	29.870 
18:40	31.6	31.6	31.6	75	24.6	2	4	248	0.00	29.870 
18:45	31.5	31.5	31.5	77	25.1	1	4	248	0.00	29.877 
18:50	31.2	31.2	31.2	78	25.2	1	3	248	0.00	29.877 
18:55	31.0	31.0	31.0	79	25.3	1	3	248	0.00	29.877 
19:00	30.9	30.9	30.9	80	25.5	1	3	248	0.00	29.885 
19:05	30.7	30.7	30.7	81	25.6	0	2	248	0.00	29.885 
19:10	30.7	30.7	30.7	81	25.6	0	1	248	0.00	29.885 
19:15	30.7	30.7	30.7	81	25.6	0	1	248	0.00	29.886 
19:20	30.7	30.7	30.7	82	25.9	0	2	248	0.00	29.886 
19:25	30.7	30.7	30.7	82	25.9	0	1	248	0.00	29.886 
19:30	30.7	30.7	30.7	81	25.6	0	2	248	0.00	29.891 
19:35	30.7	30.7	30.7	81	25.6	0	2	248	0.00	29.891 
19:40	30.7	30.7	30.7	80	25.3	0	2	248	0.00	29.891 
19:45	30.7	30.7	30.7	80	25.3	0	2	248	0.00	29.896 
19:50	30.7	30.7	30.7	79	25.0	0	2	248	0.00	29.896 
19:55	30.7	30.7	30.7	79	25.0	0	2	248	0.00	29.896 
20:00	30.6	30.6	30.6	78	24.6	0	2	0	0.00	29.899 
20:05	30.4	30.4	30.4	78	24.4	0	2	0	0.00	29.899 
20:10	30.4	30.4	30.4	78	24.4	0	1	0	0.00	29.899 
20:15	30.3	30.3	30.3	78	24.3	0	2	0	0.00	29.900 
20:20	30.1	30.1	30.1	78	24.1	1	3	315	0.00	29.900 
20:25	30.1	30.1	30.1	78	24.1	0	2	315	0.00	29.900 
20:30	30.0	30.0	30.0	78	24.0	0	1	315	0.00	29.901 
20:35	30.0	30.0	30.0	78	24.0	0	1	315	0.00	29.901 
20:40	29.8	29.8	29.8	78	23.8	0	1	315	0.00	29.901 
20:45	29.7	29.7	29.7	78	23.7	0	1	315	0.00	29.902 
20:50	29.5	29.5	29.5	78	23.5	0	1	315	0.00	29.902 
20:55	29.4	29.4	29.4	79	23.7	0	0	---	0.00	29.902 
21:00	29.3	29.3	29.3	79	23.6	0	0	---	0.00	29.903 
21:05	29.1	29.1	29.1	79	23.4	0	0	---	0.00	29.903 
21:10	29.0	29.0	29.0	79	23.3	0	0	---	0.00	29.903 
21:15	28.8	28.8	28.8	79	23.1	0	0	---	0.00	29.900 
21:20	28.7	28.7	28.7	79	23.0	0	0	---	0.00	29.900 
21:25	28.5	28.5	28.5	80	23.1	0	0	---	0.00	29.900 
21:30	28.2	28.2	28.2	80	22.8	0	0	---	0.00	29.900 
21:35	28.1	28.1	28.1	80	22.7	0	0	---	0.00	29.900 
21:40	27.9	27.9	27.9	80	22.5	0	0	---	0.00	29.900 
21:45	27.8	27.8	27.8	81	22.7	0	0	---	0.00	29.901 
21:50	27.9	27.9	27.9	81	22.8	0	0	---	0.00	29.901 
21:55	27.8	27.8	27.8	81	22.7	0	0	---	0.00	29.901 
22:00	27.8	27.8	27.8	81	22.7	0	0	---	0.00	29.901 
22:05	27.6	27.6	27.6	81	22.5	0	0	---	0.00	29.901 
22:10	27.5	27.5	27.5	81	22.4	0	0	---	0.00	29.901 
22:15	27.3	27.3	27.3	81	22.3	0	0	---	0.00	29.901 
22:20	27.0	27.0	27.0	81	22.0	0	0	---	0.00	29.901 
22:25	26.7	26.7	26.7	81	21.7	0	0	---	0.00	29.901 
22:30	26.6	26.6	26.6	81	21.6	0	0	---	0.00	29.901 
22:35	26.4	26.4	26.4	81	21.4	0	0	---	0.00	29.901 
22:40	26.1	26.1	26.1	82	21.4	0	0	---	0.00	29.901 
22:45	26.0	26.0	26.0	82	21.3	0	0	---	0.00	29.900 
22:50	25.8	25.8	25.8	82	21.1	0	0	---	0.00	29.900 
22:55	25.7	25.7	25.7	83	21.3	0	0	---	0.00	29.900 
23:00	25.6	25.6	25.6	83	21.2	0	0	---	0.00	29.901 
23:05	25.4	25.4	25.4	83	21.0	0	0	---	0.00	29.901 
23:10	25.3	25.3	25.3	83	20.9	0	0	---	0.00	29.901 
23:15	25.1	25.1	25.1	84	21.0	0	0	---	0.00	29.905 
23:20	25.0	25.0	25.0	84	20.9	0	0	---	0.00	29.905 
23:25	24.8	24.8	24.8	84	20.7	0	0	---	0.00	29.905 
23:30	24.8	24.8	24.8	84	20.7	0	0	---	0.00	29.906 
23:35	24.8	24.8	24.8	84	20.7	0	0	---	0.00	29.906 
23:40	24.8	24.8	24.8	85	20.9	0	0	---	0.00	29.906 
23:45	24.7	24.7	24.7	85	20.8	0	0	---	0.00	29.905 
23:50	24.7	24.7	24.7	85	20.8	0	0	---	0.00	29.905 
23:55	24.7	24.7	24.7	85	20.8	0	0	---	0.00	29.905 

CoCoRaHS
IN-AL-39
A2 Web Hosting
Creative Commons License
GoDaddy
search engine by freefind advanced

loaded 2018-11-17 05:45:37 • last modified 2010-11-18 10:43:29
Privacy PolicyDisclaimer
• wx.awcolley.com is powered by PmWiki v.2002016 •
• all content (unless otherwise noted) © 2018 A W Colley